Wahpeton, MN

7:04 AM CST on December 09, 2019 (GMT -0600)
Stern

Weather History for KBWP - October, 2019

Change the Weather History Date:

Thursday, October 10, 2019

  Actual Average (WUND) Record (WUND)
Temperature  
Mean Temperature 36 °F -  
Max Temperature 41 °F - - (-1)
Min Temperature 32 °F - - (-1)
Degree Days  
Heating Degree Days 28    
Moisture  
Dew Point 34 °F    
Average Humidity 93    
Maximum Humidity 100    
Minimum Humidity 87    
Precipitation  
Precipitation 0.00 in - - ()
Sea Level Pressure  
Sea Level Pressure 29.87 in    
Wind  
Wind Speed 14 mph ()    
Max Wind Speed 21 mph    
Max Gust Speed 29 mph    
Visibility 5.7 miles    
Events      
Averages and records for this station are not official NWS values.
T = Trace of Precipitation, MM = Missing Value Source: Averaged Metar Reports

Daily Weather History Graph

Daily Weather History Graph

Search for Another Location

Airport or City:

Astronomy

Oct. 10, 2019 Rise Set
Actual Time 7:36 AM CDT 6:49 PM CDT
Civil Twilight 7:06 AM CDT 7:19 PM CDT
Nautical Twilight 6:31 AM CDT 7:54 PM CDT
Astronomical Twilight 5:56 AM CDT 8:29 PM CDT
Moon 6:05 PM CDT (10/10) 4:05 AM CDT (10/10)
Length of Visible Light 12h 13m
Length of Day
11h 12m
Waxing Gibbous, 91% of the Moon is Illuminated
Oct 10
Waxing Gibbous
Oct 13
Full
Oct 21
Last Quarter
Oct 27
New
Nov 4
First Quarter

Hourly Weather History & Observations

Time (CDT) Temp. Windchill Dew Point Humidity Pressure Visibility Wind Dir Wind Speed Gust Speed Precip Events Conditions
12:15 AM 41.0 °F 35.8 °F 37.4 °F 87% 29.93 in 5.0 mi NNW 8.1 mph - N/A   Unknown
12:35 AM 41.0 °F 34.3 °F 37.4 °F 87% 29.93 in 7.0 mi NNW 11.5 mph 19.6 mph N/A   Unknown
12:55 AM 41.0 °F 33.5 °F 37.4 °F 87% 29.93 in 10.0 mi North 13.8 mph 24.2 mph N/A   Unknown
1:15 AM 41.0 °F 32.8 °F 37.4 °F 87% 29.94 in 10.0 mi North 16.1 mph - N/A   Unknown
1:35 AM 41.0 °F 32.8 °F 37.4 °F 87% 29.94 in 10.0 mi NNW 16.1 mph 21.9 mph N/A   Unknown
1:55 AM 39.2 °F 30.8 °F 35.6 °F 87% 29.94 in 10.0 mi North 15.0 mph 19.6 mph N/A   Unknown
2:15 AM 39.2 °F 31.6 °F 35.6 °F 87% 29.94 in 10.0 mi North 12.7 mph - N/A   Unknown
2:55 AM 39.2 °F 30.2 °F 35.6 °F 87% 29.94 in 10.0 mi NNW 17.3 mph 23.0 mph N/A   Unknown
3:15 AM 37.4 °F 29.3 °F 35.6 °F 93% 29.94 in 10.0 mi North 12.7 mph 26.5 mph N/A   Unknown
3:35 AM 37.4 °F 28.2 °F 35.6 °F 93% 29.93 in 10.0 mi NNW 16.1 mph 26.5 mph N/A   Unknown
3:55 AM 37.4 °F 26.9 °F 35.6 °F 93% 29.91 in 10.0 mi North 20.7 mph 26.5 mph N/A   Unknown
4:15 AM 37.4 °F 29.8 °F 35.6 °F 93% 29.91 in 10.0 mi North 11.5 mph 24.2 mph N/A   Unknown
4:35 AM 37.4 °F 28.5 °F 35.6 °F 93% 29.91 in 10.0 mi NNW 15.0 mph 21.9 mph N/A   Unknown
4:55 AM 37.4 °F 27.2 °F 35.6 °F 93% 29.90 in 10.0 mi North 19.6 mph 25.3 mph N/A   Unknown
5:15 AM 37.4 °F 28.2 °F 35.6 °F 93% 29.91 in 10.0 mi North 16.1 mph 20.7 mph N/A   Unknown
5:35 AM 37.4 °F 28.5 °F 35.6 °F 93% 29.90 in 7.0 mi North 15.0 mph 28.8 mph N/A   Unknown
5:55 AM 37.4 °F 28.9 °F 35.6 °F 93% 29.90 in 5.0 mi North 13.8 mph 20.7 mph N/A   Unknown
6:15 AM 37.4 °F 28.9 °F 35.6 °F 93% 29.90 in 4.0 mi North 13.8 mph 23.0 mph N/A   Unknown
6:35 AM 37.4 °F 29.8 °F 35.6 °F 93% 29.91 in 2.5 mi North 11.5 mph 23.0 mph N/A   Unknown
6:55 AM 37.4 °F 29.3 °F 35.6 °F 93% 29.91 in 3.0 mi North 12.7 mph - N/A   Unknown
7:15 AM 37.4 °F 29.3 °F 35.6 °F 93% 29.90 in 4.0 mi North 12.7 mph 21.9 mph N/A   Unknown
7:35 AM 37.4 °F 28.9 °F 35.6 °F 93% 29.89 in 3.0 mi North 13.8 mph 20.7 mph N/A   Unknown
7:55 AM 37.4 °F 28.5 °F 35.6 °F 93% 29.87 in 2.0 mi North 15.0 mph 20.7 mph N/A   Unknown
8:15 AM 37.4 °F 28.9 °F 35.6 °F 93% 29.87 in 3.0 mi North 13.8 mph 17.3 mph N/A   Unknown
8:35 AM 37.4 °F 29.3 °F 35.6 °F 93% 29.91 in 5.0 mi NW 12.7 mph 16.1 mph N/A   Unknown
8:55 AM 37.4 °F 27.5 °F 35.6 °F 93% 29.93 in 2.0 mi NW 18.4 mph - N/A   Unknown
9:15 AM 37.4 °F 27.5 °F 33.8 °F 87% 29.92 in 2.0 mi NW 18.4 mph 24.2 mph N/A   Unknown
9:35 AM 35.6 °F 25.9 °F 33.8 °F 93% 29.89 in 2.5 mi NNW 16.1 mph 25.3 mph N/A   Unknown
9:55 AM 35.6 °F 24.8 °F 33.8 °F 93% 29.91 in 5.0 mi NW 19.6 mph 26.5 mph N/A   Unknown
10:15 AM 35.6 °F 24.8 °F 33.8 °F 93% 29.92 in 10.0 mi NW 19.6 mph 26.5 mph N/A   Unknown
10:35 AM 35.6 °F 24.8 °F 33.8 °F 93% 29.91 in 10.0 mi NNW 19.6 mph 27.6 mph N/A   Unknown
10:55 AM 35.6 °F 25.9 °F 33.8 °F 93% 29.91 in 5.0 mi NNW 16.1 mph 27.6 mph N/A   Unknown
11:15 AM 35.6 °F 25.2 °F 33.8 °F 93% 29.90 in 3.0 mi North 18.4 mph 26.5 mph N/A   Unknown
11:35 AM 35.6 °F 26.6 °F 33.8 °F 93% 29.90 in 4.0 mi North 13.8 mph 25.3 mph N/A   Unknown
11:55 AM 35.6 °F 25.5 °F 33.8 °F 93% 29.90 in 7.0 mi NNW 17.3 mph 21.9 mph N/A   Unknown
12:15 PM 35.6 °F 26.6 °F 33.8 °F 93% 29.90 in 7.0 mi NNW 13.8 mph 19.6 mph N/A   Unknown
12:35 PM 35.6 °F 26.2 °F 33.8 °F 93% 29.89 in 5.0 mi NNW 15.0 mph 21.9 mph N/A   Unknown
12:55 PM 35.6 °F 26.6 °F 33.8 °F 93% 29.88 in 5.0 mi NNW 13.8 mph 21.9 mph N/A   Unknown
1:15 PM 35.6 °F 25.2 °F 33.8 °F 93% 29.86 in 7.0 mi NNW 18.4 mph 23.0 mph N/A   Unknown
1:35 PM 35.6 °F 27.5 °F 33.8 °F 93% 29.86 in 10.0 mi NNW 11.5 mph 23.0 mph N/A   Unknown
1:55 PM 35.6 °F 26.2 °F 33.8 °F 93% 29.84 in 3.0 mi North 15.0 mph 24.2 mph N/A   Unknown
2:15 PM 35.6 °F 27.5 °F 33.8 °F 93% 29.84 in 5.0 mi NNW 11.5 mph - N/A   Unknown
2:35 PM 35.6 °F 25.9 °F 33.8 °F 93% 29.84 in 3.0 mi NNW 16.1 mph 19.6 mph N/A   Unknown
2:55 PM 35.6 °F 26.2 °F 33.8 °F 93% 29.84 in 4.0 mi NW 15.0 mph - N/A   Unknown
3:15 PM 35.6 °F 25.5 °F 33.8 °F 93% 29.84 in 2.5 mi NNW 17.3 mph 24.2 mph N/A   Unknown
3:35 PM 35.6 °F 24.8 °F 33.8 °F 93% 29.80 in 2.0 mi NNW 19.6 mph 23.0 mph N/A   Unknown
3:55 PM 35.6 °F 26.2 °F 33.8 °F 93% 29.85 in 3.0 mi NNW 15.0 mph 19.6 mph N/A   Unknown
4:35 PM 33.8 °F 24.3 °F 32.0 °F 93% 29.84 in 3.0 mi NW 13.8 mph 17.3 mph N/A   Unknown
4:55 PM 35.6 °F 26.2 °F 32.0 °F 87% 29.82 in 5.0 mi NNW 15.0 mph 20.7 mph N/A   Unknown
5:15 PM 35.6 °F 25.9 °F 32.0 °F 87% 29.84 in 3.0 mi NW 16.1 mph - N/A   Unknown
5:35 PM 33.8 °F 24.3 °F 32.0 °F 93% 29.83 in 4.0 mi NNW 13.8 mph 21.9 mph N/A   Unknown
5:55 PM 33.8 °F 23.5 °F 32.0 °F 93% 29.83 in 10.0 mi NW 16.1 mph 23.0 mph N/A   Unknown
6:15 PM 33.8 °F 23.5 °F 32.0 °F 93% 29.84 in 7.0 mi NW 16.1 mph 23.0 mph N/A   Unknown
6:35 PM 33.8 °F 23.2 °F 32.0 °F 93% 29.82 in 7.0 mi NW 17.3 mph 23.0 mph N/A   Unknown
6:55 PM 33.8 °F 22.5 °F 32.0 °F 93% 29.81 in 7.0 mi NNW 19.6 mph 27.6 mph N/A   Unknown
7:15 PM 33.8 °F 23.2 °F 32.0 °F 93% 29.83 in 10.0 mi NW 17.3 mph 24.2 mph N/A   Unknown
7:35 PM 33.8 °F 23.5 °F 32.0 °F 93% 29.82 in 10.0 mi NW 16.1 mph 24.2 mph N/A   Unknown
7:55 PM 33.8 °F 22.2 °F 32.0 °F 93% 29.82 in 10.0 mi NW 20.7 mph 27.6 mph N/A   Unknown
8:15 PM 33.8 °F 23.9 °F 32.0 °F 93% 29.83 in 5.0 mi NW 15.0 mph - N/A   Unknown
8:35 PM 33.8 °F 23.9 °F 32.0 °F 93% 29.83 in 2.5 mi NNW 15.0 mph 23.0 mph N/A   Unknown
8:55 PM 32.0 °F 21.2 °F 32.0 °F 100% 29.82 in 2.5 mi NW 16.1 mph 27.6 mph N/A   Unknown
9:15 PM 32.0 °F 21.2 °F 32.0 °F 100% 29.81 in 3.0 mi NNW 16.1 mph 23.0 mph N/A   Unknown
9:35 PM 32.0 °F 20.8 °F 32.0 °F 100% 29.81 in 3.0 mi NNW 17.3 mph 23.0 mph N/A   Unknown
9:55 PM 32.0 °F 20.8 °F 32.0 °F 100% 29.81 in 3.0 mi NW 17.3 mph 24.2 mph N/A   Unknown
10:15 PM 32.0 °F 20.8 °F 32.0 °F 100% 29.81 in 3.0 mi NW 17.3 mph 25.3 mph N/A   Unknown
10:35 PM 32.0 °F 20.8 °F 32.0 °F 100% 29.81 in 3.0 mi NW 17.3 mph 23.0 mph N/A   Unknown
10:55 PM 32.0 °F 21.2 °F 32.0 °F 100% 29.80 in 3.0 mi NW 16.1 mph 21.9 mph N/A   Unknown
11:15 PM 32.0 °F 20.5 °F 32.0 °F 100% 29.81 in 4.0 mi NW 18.4 mph - N/A   Unknown
11:35 PM 32.0 °F 20.1 °F 32.0 °F 100% 29.79 in 3.0 mi NW 19.6 mph 24.2 mph N/A   Unknown
11:55 PM 32.0 °F 20.8 °F 32.0 °F 100% 29.80 in 3.0 mi NW 17.3 mph 27.6 mph N/A   Unknown